Location: Bh?mavarapp?du
(16.7041°N, 80.6518°E)
Time: 01:57:04
(UTC+00:00)

Cosmos 1726 - Pass Details

Date: 21 April 2021
Orbit: 481 x 496 km, 82.5° (Epoch: 07 May)

Event Time Altitude Azimuth Distance (km) Brightness Sun altitude
Rises 23:41:14 0° 334° (NNW) 2,571 5.6 -9.3°
Reaches altitude 10° 23:43:44 10° 317° (NW) 1,687 4.5 -8.7°
Maximum altitude 23:46:29 20° 269° (W) 1,184 3.4 -8.0°
Drops below altitude 10° 23:49:14 10° 220° (SW) 1,680 4.3 -7.4°
Sets 23:51:44 0° 203° (SSW) 2,557 5.4 -6.8°
